Погода в Малышево

Россия / Новосибирская область     53°44′35″N   82°03′25″E
темп.,
°C
ветер,
м/с
пор.,
м/с
влажн.,
%
обл.,
%
осадки,
мм/ч
давл.,
гПа
погр.,
м
13 апреля, вт
вт1301:00−1зюз3990100 0.0 1030176
04:00−1з3890100 0.0 1028217
07:00+1сз3897100 2.3 1029306
10:00+3с4992100 0.0 1031437
13:00+6ссз577734 0.0 10321001
16:00+5сз56778 0.0 1034744
19:00+3сз578148 0.0 1035599
22:000зсз378776 0.0 1036214
14 апреля, ср
ср1401:00+1зсз4885100 0.0 1036586
04:000з3893100 0.0 1035360
07:000зюз3794100 0.0 1036264
10:00+3зюз578581 0.0 1035538
13:00+5зюз61076100 0.0 1033707
16:00+6з71277100 0.0 1030679
19:00+6зюз61378100 0.0 1028691
22:00+4з41278100 0.0 1028425
15 апреля, чт
чт1501:00+2з349011 0.0 1028100
04:00+1з239483 0.0 102749
07:00+3зюз2294100 0.0 102749
10:00+4юз2492100 0.1 1027142
13:00+5зюз2590100 0.1 1026221
16:00+8зюз3782100 0.0 1025369
19:00+9з268370 0.0 1023320
22:00+7юз229075 0.0 102313
16 апреля, пт
пт1601:00+6з2290100 0.0 102115
04:00+5зюз33905 0.0 102039
07:00+5юз359083 0.0 102078
10:00+7юз378472 0.0 1019250
13:00+12зюз4670100 0.0 1017449
16:00+16юз56509 0.0 10151663
19:00+15зюз36562 0.0 1013359
22:00+10юз227099 0.0 101310
17 апреля, сб
сб1701:00+8ююз2276100 0.0 101116
04:00+7ююз1178100 0.0 100811
07:00+7ююз1176100 0.0 100710
10:00+10в2265100 0.0 1006170
13:00+13св2257100 0.0 1004657
16:00+11ссв447076 0.0 1005446
19:00+8ссв667484 0.0 1005451
22:00+3ссв5984100 0.0 1007305